SCP
0 0 0 0 0 0 0 0 0 0 0 0 0 0 0 0 0 0 0 1 1 1 1 1 1 1 1 1 1 1 1 1 1 1 1 1 1 1 1 1 1 1 0
0 0 0 0 0 0 0 0 0 0 0 0 0 0 0 0 0 0 0 0 1 1 1 1 1 1 1 1 1 1 1 1 1 1 1 1 1 1 1 1 1 1 1
0 0 0 0 0 0 0 0 0 0 0 0 0 0 0 0 0 0 0 0 0 1 1 1 1 1 1 1 1 1 1 1 1 1 1 1 1 1 1 1 1 1 1
0 0 0 0 0 0 0 0 0 0 0 0 0 0 0 0 0 0 0 0 0 0 1 1 1 1 1 1 1 1 1 1 1 1 1 1 1 1 1 1 1 1 1
0 0 0 0 0 0 0 0 0 0 0 0 0 0 0 0 0 0 0 0 0 0 0 0 1 1 1 1 1 1 1 1 1 1 1 1 1 1 1 1 1 1 0
0 0 0 0 0 0 0 0 0 0 0 0 0 0 0 0 0 0 0 0 0 0 0 0 0 0 0 1 1 1 1 1 1 1 1 1 1 1 1 1 1 1 1
0 0 0 0 0 0 0 0 0 0 0 0 0 0 0 0 0 0 0 0 0 0 0 0 0 0 0 0 1 1 1 1 0 1 1 1 1 1 1 1 1 1 1
0 0 0 0 0 0 0 0 0 0 0 0 0 0 0 0 0 0 0 0 0 0 0 0 0 0 0 0 0 0 1 1 1 1 1 1 1 1 1 1 1 1 1
0 0 0 0 0 0 0 0 0 0 0 0 0 0 0 0 0 0 0 0 0 0 0 0 0 0 0 0 0 0 0 1 1 1 1 0 1 1 1 1 1 1 1
0 0 0 0 0 0 0 0 0 0 0 0 0 0 0 0 0 0 0 0 0 0 0 0 0 0 0 0 0 0 0 0 0 0 0 0 0 1 1 1 1 2 2
0 0 0 0 0 0 0 0 0 0 0 0 0 0 0 0 0 0 0 0 0 0 0 0 0 0 0 0 0 0 0 0 0 0 0 0 0 0 1 1 2 2 2
0 0 0 0 0 0 0 0 0 0 0 0 0 0 0 0 0 0 0 0 0 0 0 0 0 0 0 0 0 0 0 0 0 0 0 0 0 0 1 1 2 2 2
0 0 0 0 0 0 0 0 0 0 0 0 0 0 0 0 0 0 0 0 0 0 0 0 0 0 0 0 0 0 0 0 0 0 0 0 0 0 1 1 2 3 2
0 0 0 0 0 0 0 0 0 0 0 0 0 0 0 0 0 0 0 0 0 0 0 0 0 0 0 0 0 0 0 0 0 0 0 0 0 0 1 1 2 2 2
0 0 0 0 0 0 0 0 0 0 0 0 0 0 0 0 0 0 0 0 0 0 0 0 0 0 0 0 0 0 0 0 0 0 0 0 0 0 0 1 1 1 1
0 0 0 0 0 0 0 0 0 0 0 0 0 0 0 0 0 0 0 0 0 0 0 0 0 0 0 0 0 0 0 0 0 0 0 0 0 0 0 0 0 0 0
0 0 0 0 0 0 0 0 0 0 0 0 0 0 0 0 0 0 0 0 0 0 0 0 0 0 0 0 0 0 0 0 0 0 0 0 0 0 0 0 0 0 0
0 0 0 0 0 0 0 0 0 0 0 0 0 0 0 0 0 0 0 0 0 0 0 0 0 0 0 0 0 0 0 0 0 0 0 0 0 0 0 0 0 0 0
0 0 0 0 0 0 0 0 0 0 0 0 0 0 0 0 0 0 0 0 0 0 0 0 0 0 0 0 0 0 0 0 0 0 0 0 0 0 0 0 0 0 0
0 0 0 0 0 0 0 0 0 0 0 0 0 0 0 0 0 0 0 0 0 0 0 0 0 0 0 0 0 0 0 0 0 0 0 0 0 0 0 0 0 0 0
0 0 0 0 0 0 0 0 0 0 0 0 0 0 0 0 0 0 0 0 0 0 0 0 0 0 0 0 0 0 0 0 0 0 0 0 0 0 0 0 0 0 0
0 0 0 0 0 0 0 0 0 0 0 0 0 0 0 0 0 0 0 0 0 0 0 0 0 0 0 0 0 0 0 0 0 0 0 0 0 0 0 0 0 0 0
0 0 0 0 0 0 0 0 0 0 0 0 0 0 0 0 0 0 0 0 0 0 0 0 0 0 0 0 0 0 0 0 0 0 0 0 0 0 0 0 0 0 0
0 0 0 0 0 0 0 0 0 0 0 0 0 0 0 0 0 0 0 0 0 0 0 0 0 0 0 0 0 0 0 0 0 0 0 0 0 0 0 0 0 0 0
0 0 0 0 0 0 0 0 0 0 0 0 0 0 0 0 0 0 0 0 0 0 0 0 0 0 0 0 0 0 0 0 0 0 0 0 0 0 0 0 0 0 0
0 0 0 0 0 0 0 0 0 0 0 0 0 0 0 0 0 0 0 0 0 0 0 0 0 0 0 0 0 0 0 0 0 0 0 0 0 0 0 0 0 0 0
Wind_Speed
2 2 2 2 2 2 2 2 2 3 3 3 3 3 3 3 3 3 3 5 6 6 5 5 4 4 4 4 4 4 4 4 4 4 4 3 2 2 2 1 1 0 0
2 2 2 2 2 2 2 2 3 3 2 3 3 3 3 3 3 3 2 4 7 7 6 5 5 6 5 5 5 4 4 4 4 3 3 3 2 2 1 1 0 1 1
2 2 2 2 2 2 3 3 3 3 3 3 4 4 3 3 3 3 3 3 4 6 7 6 5 5 5 5 5 5 5 4 4 3 3 2 2 1 1 1 1 1 2
3 2 2 2 2 2 3 3 3 3 3 3 3 3 3 3 4 3 3 4 3 3 5 7 6 6 5 5 5 5 5 4 4 3 3 3 2 2 2 2 2 2 3
3 3 2 2 2 3 3 3 3 2 3 3 3 4 4 4 4 4 5 5 4 4 3 5 7 7 7 6 6 5 5 4 4 3 3 3 3 3 3 3 3 3 3
3 3 3 3 3 3 3 3 3 3 3 2 4 4 4 3 4 4 4 4 4 5 5 5 4 5 8 8 7 6 6 5 5 4 4 3 3 3 3 4 3 3 3
3 3 3 3 3 3 2 2 2 4 3 2 3 3 4 4 5 4 4 4 5 5 5 5 4 4 4 8 8 8 7 6 5 5 5 5 4 4 4 4 4 4 4
2 3 3 2 2 3 3 3 3 2 3 3 2 3 3 4 4 5 4 5 5 5 6 6 6 5 4 3 5 8 8 7 6 5 5 5 5 5 5 4 4 4 4
3 3 3 3 3 3 2 2 2 3 2 3 3 3 3 1 2 3 4 5 5 5 5 4 6 6 5 4 4 6 9 8 8 7 7 7 6 6 5 4 4 4 4
3 3 3 3 3 2 3 2 3 2 3 2 2 3 2 2 2 1 3 4 5 5 5 5 5 5 5 4 5 8 10 9 10 9 9 9 8 7 5 4 3 3 3
3 3 3 3 3 2 3 3 3 3 2 2 2 1 3 3 2 2 1 3 3 3 4 4 4 4 5 5 4 7 10 9 10 10 10 10 10 8 6 4 4 3 4
3 3 3 3 3 3 3 3 3 4 3 3 2 2 2 2 1 2 2 1 2 3 3 4 4 4 4 5 6 10 10 10 10 10 10 11 11 9 7 6 6 5 5
1 2 2 3 3 3 3 3 4 4 3 3 3 2 2 1 1 2 2 1 1 2 3 3 3 4 4 4 5 10 9 10 10 10 11 11 12 10 9 8 8 8 7
1 1 2 3 3 3 4 4 4 3 3 4 4 3 2 2 1 1 2 2 1 2 3 3 3 4 4 4 6 8 6 11 10 11 11 11 12 11 11 10 10 9 9
2 3 3 4 4 4 4 4 4 3 4 4 3 4 3 2 2 2 1 2 3 1 2 3 3 4 4 3 6 5 5 9 11 11 11 11 11 11 11 11 11 11 11
2 3 4 4 4 4 4 5 4 3 5 4 3 4 4 2 2 2 2 2 2 2 1 2 2 3 4 5 8 6 5 10 11 11 11 11 10 10 10 11 11 11 11
3 4 3 4 4 4 4 4 4 4 5 4 3 4 3 3 3 2 2 2 2 2 2 1 2 3 4 5 6 5 5 5 6 11 11 11 11 11 11 11 11 11 11
3 4 4 4 4 4 3 4 4 4 4 4 3 3 3 3 3 2 2 3 2 2 2 1 2 3 4 4 5 5 5 5 4 9 11 12 12 12 12 11 11 11 11
4 4 4 4 4 3 3 3 4 3 3 3 2 3 2 3 3 2 2 2 2 3 2 2 1 2 2 3 4 4 5 4 5 7 9 11 12 12 12 12 11 11 11
4 4 3 3 3 3 3 3 3 3 3 3 2 2 2 2 2 2 2 2 2 3 3 2 1 2 2 3 3 3 4 4 4 5 6 7 9 11 11 11 11 11 10
4 4 4 3 3 3 3 4 4 4 3 3 3 2 2 2 3 2 2 2 2 2 2 2 1 2 2 3 3 3 3 4 3 3 3 4 4 4 6 8 9 10 10
4 4 4 4 3 2 5 6 5 4 3 3 2 2 3 3 5 5 5 4 4 3 2 1 1 1 2 2 2 2 2 3 3 4 3 4 3 3 4 4 7 10 10
4 4 3 3 3 3 6 6 7 4 3 2 2 2 2 3 4 3 4 6 5 4 3 2 1 1 2 2 1 2 2 2 2 4 3 3 3 3 3 5 9 9 9
4 3 3 3 3 3 6 7 7 5 3 2 1 1 2 1 2 3 3 3 3 3 2 1 1 1 1 1 1 1 2 2 3 2 2 2 3 3 4 4 7 9 9
4 3 3 4 4 3 5 7 7 4 3 2 1 1 1 1 2 4 4 3 2 3 3 4 3 3 4 4 3 1 2 2 3 3 2 1 3 4 4 4 5 8 9
4 4 3 2 3 3 4 6 7 3 2 1 1 1 1 1 2 3 3 2 1 2 2 3 4 5 4 4 5 2 0 0 2 3 2 2 3 3 4 3 3 4 5
Wind_Direction
47 36 36 37 37 37 43 47 50 51 48 40 45 55 45 38 34 29 2 14 20 20 30 38 54 58 67 65 63 62 65 74 77 71 71 65 63 60 53 88 122 130 208
75 64 55 43 34 36 46 54 58 58 49 45 44 43 40 34 34 31 19 12 16 16 21 34 49 52 54 55 59 59 59 61 63 63 59 54 52 40 22 23 357 252 251
79 77 69 51 32 40 53 55 50 51 53 51 42 36 39 35 35 28 25 19 8 18 26 29 38 43 46 50 52 54 55 55 53 47 43 39 29 1 327 304 300 279 266
76 77 74 56 42 52 55 60 51 54 48 48 42 30 32 32 31 29 30 24 18 18 22 28 35 37 42 45 45 46 50 50 45 33 24 18 7 336 313 291 286 282 267
70 78 71 59 58 60 51 57 52 63 60 51 53 45 35 34 27 33 32 27 22 22 25 28 31 39 40 36 34 31 32 33 30 24 16 4 350 332 306 278 268 269 266
68 75 69 58 62 68 54 53 61 54 59 53 62 53 35 30 35 36 33 27 23 28 33 35 27 30 33 30 26 23 21 19 18 16 12 1 346 329 311 289 278 268 266
66 76 74 61 60 71 72 73 74 61 43 28 63 39 21 30 40 33 28 30 28 26 32 33 29 29 23 25 19 21 20 18 15 12 3 355 346 338 327 295 280 274 271
60 78 80 76 69 75 66 60 71 78 41 29 81 78 30 9 11 20 22 32 27 25 29 29 26 25 21 18 9 18 18 16 15 8 1 356 348 334 326 318 295 285 275
57 70 78 81 74 78 80 64 68 90 85 35 47 110 115 123 344 357 19 26 23 29 22 19 28 25 24 23 12 11 16 11 8 2 0 357 350 338 324 317 313 304 286
50 62 73 78 77 76 80 68 68 77 102 79 44 48 91 138 118 21 359 9 22 29 22 23 21 19 20 20 15 15 16 12 10 7 4 359 354 349 342 333 332 334 317
36 51 64 74 76 73 76 72 70 70 80 99 91 76 66 57 70 112 38 348 4 7 14 17 20 18 16 14 9 16 18 16 14 12 10 6 2 357 355 3 10 8 359
25 38 59 66 70 72 74 78 78 78 78 84 82 80 99 99 91 104 114 15 355 339 357 13 19 10 9 9 10 15 19 19 17 14 13 10 6 6 12 20 23 23 19
27 22 51 64 67 72 76 81 80 73 73 81 80 75 74 81 119 120 117 105 24 338 347 2 5 1 6 4 2 8 18 20 20 18 16 14 13 15 23 30 31 29 23
102 70 73 73 74 77 80 81 78 72 71 73 69 70 67 47 64 109 135 134 77 5 8 347 341 358 355 355 1 6 12 18 21 21 19 19 21 25 31 34 29 25 22
107 89 84 81 75 76 79 83 77 69 72 66 65 66 63 40 46 51 87 126 134 96 350 334 338 342 349 358 7 7 9 18 21 23 23 23 23 25 29 31 28 23 21
101 101 89 87 83 78 80 82 78 70 74 58 63 69 58 41 46 48 61 64 97 131 120 320 323 323 340 5 12 7 11 17 21 23 24 24 24 26 28 29 27 24 20
116 112 106 98 93 87 86 88 82 78 78 64 55 68 56 48 52 43 52 58 59 87 110 325 326 330 352 3 359 -0 11 14 13 24 27 27 27 29 30 30 28 26 23
119 117 112 105 102 97 94 99 97 86 87 77 61 64 51 57 55 46 56 59 59 66 111 47 340 346 351 350 353 359 7 12 11 21 27 28 31 33 34 31 27 27 27
121 114 116 118 116 111 107 105 105 99 92 85 77 78 61 71 60 52 60 63 58 60 72 95 348 339 338 347 354 357 2 360 8 14 21 25 29 32 33 31 28 27 27
129 128 126 124 120 115 115 111 105 101 93 77 70 77 75 90 105 94 77 75 78 71 65 69 21 349 338 334 356 358 356 355 356 3 9 12 17 23 25 24 22 23 23
129 130 123 116 114 121 130 124 115 108 101 80 56 49 59 74 86 93 98 108 97 84 71 59 23 358 347 350 351 339 346 334 341 357 350 358 1 6 9 10 13 15 16
119 120 127 128 125 128 134 131 122 111 104 97 78 46 45 48 60 63 76 91 102 107 108 92 26 347 315 312 320 339 344 354 340 343 352 340 355 352 348 353 0 4 8
130 127 130 127 125 133 135 130 124 115 107 101 95 76 61 54 48 56 61 60 54 58 92 136 151 257 273 279 310 336 340 337 302 314 338 325 337 335 328 344 352 356 0
137 138 139 139 132 139 137 131 123 108 99 87 83 96 97 58 62 81 81 63 43 27 31 60 168 266 286 273 240 261 271 301 295 308 339 315 322 316 319 320 339 350 352
136 137 141 142 140 148 146 141 127 114 100 75 56 76 106 96 78 86 92 81 39 7 25 41 34 17 6 10 21 38 2 358 329 320 341 317 312 313 307 305 328 346 345
143 138 131 143 150 161 157 148 138 129 121 101 39 17 60 113 102 93 104 112 85 324 357 13 15 8 5 4 12 19 301 330 309 311 323 324 313 333 322 304 318 329 329